COSMOS 917 DEB, 27884

Orbit data source: Space-Track

COSMOS 917 DEB, 27884 is space debris originally from a launch on Thu, 16 Jun 1977 UTC launched from the Plesetsk Missile And Space Complex (PKMTR). Debris objects in space refer to the collection of defunct objects orbiting the Earth. Examples of debris include non-operational satellites, rocket bodies, and fragments generated from explosions, collisions, or faulty payload assembly.

Loading next visibility...
Identifier
27884, 1977-047G
Orbit
Molniya
Country
Flag of CISCIS
Related business
Manufacturer
Unknown
Mission
Spacecraft
Bus & Motor
Unknown
Mass
Unknown
Launch date (UTC)
1977-06-16 (49 years ago)
Launch vehicle
Unknown
Launch site
Plesetsk Missile And Space Complex (PKMTR)
Object type
Payload
Rocket body
Debris
Shape & HBR
Unknown shape, 0.6 m
Radar Cross Section
Medium (>0.1 m² and <1 m²)

Expand to show TLE details & history
Last TLE update: 2 days ago

TLE from 2 days ago
0 COSMOS 917 DEB
1 27884U 77047G   26171.46386412 -.00000202  00000-0  16614-2 0  9990
2 27884  59.9437 209.2621 7442409  67.2827 351.8591  2.01840277173949
Epoch: 2026-06-20T11:07Z
TLE epoch observation values (Epoch: 2026-06-20T11:07:57.859Z)
Latitude
-0.00009°
Longitude
133.59851°
Altitude
2,761.136 km
Speed
8.495 km/s
True Right ascension
13h 57m 04s
True Declination
0° 00' 00"
Sunlit
Object was in daylight at epoch
Visualization orbit readout
Latitude
Unknown
Longitude
Unknown
Altitude
Unknown
Speed
Unknown
Apparent Right ascension
Unknown
Apparent Declination
Unknown
Sunlit
N/A
Visualization observer readout
Local Sidereal Time
23:09:11
Azimuth
Unknown
Elevation
Unknown
Doppler factor
Unknown
Orbital elements
Apogee altitude
39,752.77 km
Perigee altitude
386.066 km
Semi-major axis
26,447.555 km
Eccentricity
0.74424
Inclination
59.9437°
RAAN
209.2621°
Arg. of periapsis
67.2827°
True anomaly
292.96062°
Mean anomaly
351.8591°
Eccentric anomaly
331.53517°
Mean motion
0.50462 °/min
Orbital period
713.41 mins
BSTAR
0.0016614
Loading maneuver chart data...
Computing Atmospheric mass density...
Loading historical data...
Loading historical data...
Loading historical data...
Loading historical data...
Loading historical data...
Loading historical data...
Loading historical data...

Documentation

Showing up to 5 results
|